Meteo Giornale » Osservazioni meteo Italia » Torino-Caselle

ore: 06:50 - Osservazioni Meteo Torino-Caselle
Lat. 45° 13' N Lon. 7° 39' E Alt. 301 metri s.l.m.

molto_nuvoloso Europe/Rome

17 °C

Molto Nuvoloso

Temp. 24 Ore

16 °C

22 °C

Nord

1.8 Km/h

Dew point 15 °C

Umidità 88 %

Visibilità  10 Km

Il sole sorge alle ore 05:43

Il sole tramonta alle ore 21:22

Data e Ora Cielo e Fenomeni T °C DP °C Um. % Pres. hPa Vis. km Vento km/h
Oggi h: 06:50 molto_nuvoloso Molto Nuvoloso 17 15 88 1001 10 N 1.8
Oggi h: 05:50 nuvoloso Nuvoloso 16 16 100 1001 10 N 3.7
Oggi h: 05:20 molto_nuvoloso Molto Nuvoloso 17 16 93 1000 10 N 5.5
Oggi h: 03:50 molto_nuvoloso Molto Nuvoloso 16 15 93 1001 10 O 7.4
Oggi h: 03:20 molto_nuvoloso Molto Nuvoloso 16 15 93 1000 10 N 5.5
Oggi h: 02:50 nuvoloso Nuvoloso 16 15 93 1000 10 SO 9.3
Oggi h: 02:20 nuvoloso Nuvoloso 16 15 93 1000 10 N 5.5
Oggi h: 01:50 poco_nuvoloso Poco Nuvoloso 16 15 93 1000 10 N 1.8
Oggi h: 01:20 poco_nuvoloso Poco Nuvoloso 17 15 88 1000 10 N 5.5
Oggi h: 00:50 molto_nuvoloso Molto Nuvoloso 17 15 88 1000 10 O/NO 11.1
Oggi h: 00:20 coperto_pioggia Pioggia Debole 17 15 88 1000 10 NO 9.3
Ieri h: 23:50 coperto_pioggia Pioggia Debole 17 15 88 1001 10 NO 7.4
Ieri h: 23:20 molto_nuvoloso Molto Nuvoloso 17 15 88 1001 10 O/NO 11.1
Ieri h: 22:50 coperto_pioggia Pioggia 17 15 88 1001 10 O/NO 11.1
Ieri h: 22:20 coperto_pioggia Pioggia 17 16 93 1000 10 NO 7.4
Ieri h: 21:50 coperto_pioggia Pioggia Debole 17 16 93 1000 10 N 5.5
Ieri h: 21:20 molto_nuvoloso Molto Nuvoloso 17 15 88 1000 10 N/NE 11.1
Ieri h: 20:50 nuvoloso Nuvoloso 18 16 88 1000 10 N 11.1
Ieri h: 20:20 molto_nuvoloso Molto Nuvoloso 18 17 93 1000 10 N 14.8
Ieri h: 19:50 coperto_pioggia Pioggia Debole 18 17 93 1000 10 N 11.1
Ieri h: 19:20 nuvoloso_temporali Temporale con Pioggia Foschia 18 17 93 999 4 E/NE 18.5
Ieri h: 18:50 nuvoloso_temporali Temporale con Pioggia 18 17 93 1000 10 N 11.1
Ieri h: 18:20 coperto_pioggia Pioggia Debole 19 16 82 999 10 NE 11.1
Ieri h: 17:50 molto_nuvoloso Molto Nuvoloso 19 17 88 999 10 E/NE 20.3
Ieri h: 17:20 molto_nuvoloso Molto Nuvoloso 21 18 82 1000 10 E/SE 7.4
Ieri h: 16:50 nuvoloso Nuvoloso 21 19 88 1000 10 N 3.7
Ieri h: 16:20 molto_nuvoloso Molto Nuvoloso 21 18 82 1000 10 S/SO 9.3
Ieri h: 15:50 nuvoloso_temporali Temporale con Pioggia 21 19 88 1000 10 S 7.4
Ieri h: 15:20 nuvoloso_temporali Temporale nelle Vicinanze 21 19 88 1000 10 S 7.4
Ieri h: 14:50 coperto_pioggia Pioggia Debole 21 19 88 1000 10 N 7.4
Ieri h: 14:20 molto_nuvoloso Molto Nuvoloso 22 18 78 1001 10 N 3.7
Ieri h: 13:20 molto_nuvoloso Molto Nuvoloso 22 19 83 1001 10 N 7.4
Ieri h: 12:50 coperto_pioggia Pioggia 21 18 82 1003 10 N/NE 7.4
Ieri h: 12:20 coperto_pioggia Pioggia Debole 21 18 82 1004 10 N 1.8
Ieri h: 11:50 molto_nuvoloso Molto Nuvoloso 21 18 82 1003 10 E/NE 7.4
Ieri h: 11:20 molto_nuvoloso Molto Nuvoloso 21 18 82 1003 10 N 5.5
Ieri h: 10:50 molto_nuvoloso Molto Nuvoloso 21 18 82 1003 10 E 7.4
Ieri h: 10:20 nuvoloso Nuvoloso 21 18 82 1003 10 E/NE 9.3
Ieri h: 09:50 nuvoloso Nuvoloso 21 17 77 1003 10 E/NE 9.3
Ieri h: 09:20 molto_nuvoloso Molto Nuvoloso 20 17 82 1004 10 N 5.5
Ieri h: 08:50 molto_nuvoloso Molto Nuvoloso 19 17 88 1004 10 E/NE 7.4
Ieri h: 08:20 nuvoloso Nuvoloso 20 17 82 1004 10 N/NE 9.3
Ieri h: 07:50 nuvoloso Nuvoloso 20 17 82 1004 10 N/NE 11.1